STARLINK-4691, 53588

Orbit data source: Space-Track

STARLINK-4691, 53588 is a payload satellite owned by SpaceX/Seattle (US) in LEO that was launched on Sun, 28 Aug 2022 UTC via an FALCON 9 launch vehicle from the Air Force Eastern Test Range (AFETR). Payloads include a variety of satellites, spacecraft, and rockets equipped with specific instruments for various scientific and technological missions. These include communications satellites like Starlink; space stations such as the ISS; scientific satellites like the Hubble; Earth observation satellites from companies like Planet Labs, Umbra, and HawkEye 360; GPS; miniature CubeSats for education and research; and military/defense satellites.

Loading next visibility...
STARLINK-4691 details
Identifier
53588, 2022-104A
Orbit
LEO
Last TLE update7 hours ago
Origin
Flag of USSpaceX/Seattle (US)
ManufacturerSpaceX/Seattle
MissionOperational Commercial Communications
Bus & MotorSTARLINK, Unknown motor
Mass300 kg wet, ~290 kg dry
Launch date (UTC)
2022-08-28 (2 years ago)
Launch vehicle
FALCON 9
Launch site
Air Force Eastern Test Range (AFETR)
Object type
Payload
Rocket body
Debris
Shape & HBRBox + 1 Pan, 8.86 m
Radar Cross Section13.562 m², Large (>1 m²)

Expand to show TLE details & history

TLE from 7 hours ago
0 STARLINK-4691
1 53588U 22104A   24361.46073624  .00003001  00000-0  20646-3 0  9991
2 53588  53.2192  51.6521 0001410  94.2075 265.9079 15.08859920128765
Epoch: 2024-12-26T11:03Z
Definitive object data (Epoch: 2024-12-26T11:03:27.611Z)
Latitude0.00005°
Longitude150.34728°
Altitude540.65 km
Speed7.593 km/s
True Right ascension03h 26m 36s
True Declination0° 00' 00"
Sunlit
Object was in full shadow at TLE epoch
Visualization TLE readout
Latitude38.71536°
Longitude-174.30343°
Altitude542.303 km
Speed7.596 km/s
Apparent Right ascension05h 25m 36s
Apparent Declination1° 19' 09"
Sunlit
Object is in full shadow
Visualization observer readout
Local Sidereal Time17:00:53
Azimuth350.674° N
Elevation-48.379°
Doppler factor1
Orbital elements
Apogee altitude540.903 km
Perigee altitude538.952 km
Semi-major axis6,918.064 km
Eccentricity0.000141
Inclination53.2192°
RAAN51.6521°
Arg. of periapsis94.2075°
True anomaly265.89178°
Mean anomaly265.9079°
Eccentric anomaly265.89984°
Mean motion3.77195 °/min
BSTAR0.00020646
Orbital period95.44 mins
Loading maneuver chart data...
Loading historical data...
Loading historical data...
Loading historical data...
Loading historical data...
Loading historical data...
Loading historical data...
Loading historical data...

STARLINK-4691 Visibility forecast

Observer location: undefined°, undefined

Span
Click to sort rows by Start time (UTC) header in descending order
Start Az.
Max El. time (UTC)
Max El. Az.
Max El.
End time (UTC)
End Az.
6 mins2024-12-27 06:19:31.309Z228.947° WSW2024-12-27 06:22:31.309Z49.3° ENE43.612°2024-12-27 06:25:31.309Z49.915° ENE
4 mins2024-12-27 08:00:31.309Z310.084° NW2024-12-27 08:01:31.309Z329.371° NNW19.166°2024-12-27 08:04:31.309Z22.744° NE
4 mins2024-12-27 11:21:31.309Z349.866° N2024-12-27 11:23:31.309Z28.337° NE18.59°2024-12-27 11:25:31.309Z62.119° ENE
6 mins2024-12-27 13:00:31.309Z312.664° NW2024-12-27 13:02:31.309Z325.488° NNW42.699°2024-12-27 13:06:31.309Z128.308° SE
|